Wetbulb
67.84 65.48 66.67 62.30 54.32 53.82 51.29 53.47 56.36 56.29 59.87 63.09 66.47 64.14 59.26 61.37 57.37 55.83 69.16 77.20 77.82 76.30 75.91 76.26 78.46 78.61 78.48 78.38 77.70 77.22 76.66 76.58 76.81 76.89 76.41 76.66 77.24 77.34 77.49 77.49 77.75 78.15 77.60 77.23 76.86 76.68 76.56 76.18 76.39
63.09 64.24 61.92 58.44 52.55 49.86 50.70 55.18 54.13 57.59 61.11 62.72 67.78 64.31 61.45 57.57 66.99 69.26 72.41 77.77 78.11 76.58 76.58 75.80 78.28 78.28 78.15 78.10 77.57 76.96 76.76 76.64 76.96 77.06 76.76 76.64 77.19 77.34 77.29 77.57 77.52 77.79 77.54 77.11 76.77 76.50 76.52 76.53 76.42
63.97 63.42 57.73 56.45 53.28 49.98 50.59 54.58 55.33 57.97 61.40 61.43 65.84 68.51 68.35 68.15 72.34 74.16 77.02 77.65 77.93 76.44 76.71 76.73 77.92 78.02 77.75 77.47 77.42 77.09 76.89 76.71 77.04 77.09 76.86 76.84 77.24 77.56 77.44 77.62 77.54 77.73 77.06 76.79 76.67 76.84 76.81 76.45 76.09
60.36 59.57 56.41 53.12 50.96 52.42 52.30 54.41 56.51 57.61 60.43 62.32 66.12 63.82 68.78 73.31 73.36 75.25 77.99 77.32 77.13 77.63 76.36 76.82 77.70 77.59 77.55 77.39 77.14 77.24 76.99 77.09 77.09 77.19 77.07 77.19 77.14 77.34 77.34 77.62 77.24 77.17 77.25 77.09 77.12 76.92 76.77 76.28 75.85
59.11 57.18 52.21 52.02 51.21 55.08 54.99 55.18 56.44 57.08 58.95 61.39 63.69 60.76 63.90 70.13 74.87 74.89 75.88 77.18 77.61 77.27 75.01 75.45 77.29 77.09 77.16 77.27 77.24 77.44 77.29 77.21 77.09 77.12 77.09 77.19 77.26 77.13 77.19 77.34 77.09 77.10 77.06 77.09 77.12 77.06 76.78 76.22 75.61
52.80 54.63 48.73 48.33 50.06 54.59 54.55 55.26 55.58 57.33 59.62 61.04 61.08 57.28 61.43 68.17 70.21 73.47 74.88 74.90 78.01 76.67 75.70 75.34 76.81 77.01 76.96 76.99 76.99 77.17 77.31 77.41 77.29 77.34 77.27 77.34 77.26 77.03 77.01 77.22 77.14 76.86 76.67 76.70 76.95 76.99 76.69 75.91 75.02
51.53 50.56 48.44 49.57 50.61 51.74 52.90 54.54 53.75 54.75 56.22 56.07 58.66 56.44 58.09 62.32 66.38 70.03 72.55 73.85 75.09 78.09 76.98 76.03 75.66 76.39 76.86 76.59 76.84 76.99 77.08 77.26 77.33 77.15 77.13 77.13 77.28 76.91 76.93 77.11 77.17 76.71 76.38 76.33 76.41 76.34 76.03 75.41 74.33
53.28 51.53 48.98 49.48 49.35 50.38 53.49 53.69 54.53 54.29 54.04 58.63 59.03 54.70 54.87 59.25 61.85 65.30 69.87 72.30 72.26 76.42 77.50 77.58 76.92 75.51 75.04 74.89 76.54 76.68 76.66 76.86 77.17 77.28 77.08 77.12 77.08 77.01 76.83 76.55 76.66 76.89 76.56 76.31 75.93 75.41 74.96 74.35 73.75
54.54 47.92 47.16 48.89 48.91 51.45 54.19 52.54 54.92 55.65 54.64 55.80 57.32 57.08 58.24 60.30 62.16 61.72 62.14 66.00 69.02 68.88 71.04 75.53 77.30 77.43 77.10 75.48 75.36 76.14 75.88 76.23 76.25 76.58 76.98 76.31 75.27 75.42 74.93 75.28 75.60 76.69 76.66 76.41 75.88 75.16 74.48 74.03 73.61
51.87 48.30 49.78 52.58 52.92 51.47 52.95 52.82 53.77 52.73 53.31 54.01 55.34 57.48 59.23 59.91 60.33 61.53 61.20 59.71 60.42 61.01 63.37 69.95 73.50 73.84 75.15 77.49 75.75 75.23 74.77 74.12 74.05 74.01 75.04 75.17 74.42 74.09 74.76 75.03 75.27 76.41 76.56 76.31 75.83 75.31 74.83 73.86 70.75
53.40 50.15 52.73 52.73 53.40 53.60 51.93 52.01 54.08 51.94 51.14 54.13 54.16 55.14 56.74 58.10 61.52 59.08 59.01 59.66 59.71 61.22 62.66 63.06 69.05 69.34 70.25 71.13 76.47 78.07 77.32 76.16 74.86 74.33 74.23 74.96 73.90 73.35 73.25 73.96 74.01 75.14 76.11 74.21 74.65 74.03 72.95 71.54 70.67
50.78 52.17 52.64 53.26 53.65 52.27 51.41 53.16 51.94 52.32 52.92 55.71 55.74 56.09 56.19 56.39 59.10 60.02 59.56 59.25 60.21 62.08 65.01 64.96 67.29 69.22 71.04 69.70 71.33 73.28 74.14 76.21 76.30 75.74 75.95 75.53 75.37 75.00 73.27 72.65 73.75 73.71 73.76 73.40 72.90 72.06 71.86 71.27 71.16
51.51 52.08 52.56 52.86 52.54 52.33 52.92 51.32 50.85 51.91 54.34 55.95 55.73 55.76 55.54 56.29 57.38 60.35 62.43 65.65 64.05 63.61 65.58 65.89 68.01 71.01 70.60 71.37 70.24 70.26 73.34 73.32 73.83 76.30 76.58 75.82 75.17 73.80 75.17 73.93 74.02 73.64 73.45 73.46 72.30 72.35 71.95 71.62 71.29
53.31 51.83 52.09 52.45 52.69 52.85 51.14 51.31 52.02 52.58 54.76 54.59 54.82 54.88 55.35 55.97 56.78 59.07 61.96 63.47 65.27 66.61 66.57 67.90 67.37 70.21 69.60 70.26 71.31 69.56 69.81 75.38 73.06 73.00 76.83 76.91 75.92 75.81 73.30 75.55 74.14 73.45 72.22 72.31 72.59 71.28 70.91 71.91 71.69
52.75 49.74 51.56 52.07 52.73 51.66 52.81 49.39 49.80 53.31 54.43 53.97 54.20 55.06 55.47 56.32 57.00 57.90 59.89 63.68 64.54 66.14 67.99 67.73 68.07 68.43 69.99 70.38 70.78 69.96 68.88 69.32 73.31 72.25 74.29 76.50 77.08 74.68 75.93 74.79 73.93 73.41 74.01 74.26 71.47 71.79 71.43 71.67 72.55
51.10 51.16 48.19 51.79 52.60 52.63 51.15 45.99 51.40 54.01 53.99 53.30 54.22 54.79 54.94 55.92 56.23 58.50 61.80 63.48 65.59 65.52 66.33 67.43 65.57 66.32 67.28 68.81 70.62 70.15 69.16 68.17 68.38 71.89 71.02 76.19 76.42 76.97 75.93 74.89 74.23 74.12 74.25 73.00 73.08 72.14 69.85 70.97 71.13
51.03 46.96 47.60 48.78 52.71 51.37 50.60 47.88 52.29 54.21 53.38 52.94 53.40 53.94 54.01 54.83 56.74 61.39 61.78 62.41 64.29 64.92 65.45 66.43 67.29 65.12 66.14 67.75 67.74 70.08 70.15 68.58 67.73 69.17 70.79 74.03 76.53 76.76 76.55 74.92 74.67 76.85 75.28 73.70 72.55 72.23 72.07 70.15 70.55
45.83 46.02 47.38 47.26 50.87 51.47 49.88 49.61 52.18 53.23 52.89 52.63 52.79 53.38 53.96 54.34 54.93 61.78 62.06 62.71 63.86 64.56 65.74 66.41 65.93 65.97 67.14 66.13 65.39 64.78 66.52 69.26 67.94 67.68 68.33 70.38 73.70 76.10 76.32 75.32 75.23 75.28 74.86 73.21 73.06 71.61 71.66 71.75 71.04
48.72 47.74 47.11 49.61 52.26 50.78 49.70 49.63 50.67 52.63 52.43 52.12 52.43 53.40 53.98 53.62 57.25 61.44 61.74 61.95 62.91 64.36 64.77 65.80 65.24 66.01 65.38 63.05 61.48 60.55 60.75 61.32 64.81 67.23 68.29 70.54 71.40 74.95 74.71 75.13 74.93 74.62 73.31 73.23 73.69 72.52 69.93 71.04 71.39
48.71 47.33 47.55 50.24 51.62 50.88 49.74 48.30 49.88 51.37 52.39 52.96 52.73 52.37 52.60 53.64 56.60 59.93 61.14 61.98 62.60 63.87 64.12 65.59 65.36 65.91 64.49 63.62 62.98 65.41 62.74 62.08 63.46 68.19 68.77 71.98 72.31 72.35 74.32 73.41 73.30 74.18 73.38 73.69 73.16 72.20 70.26 71.37 70.91
48.57 47.45 47.49 46.68 49.32 49.90 47.58 46.01 48.54 50.93 52.20 52.27 52.16 52.40 53.26 54.18 55.53 58.91 60.39 61.59 61.93 62.51 63.59 63.30 63.79 65.76 65.88 65.65 63.44 63.37 62.41 62.88 61.06 60.01 62.58 66.62 68.85 71.75 70.97 73.16 72.00 72.23 73.60 72.91 72.74 72.46 70.83 68.17 71.52
45.92 50.04 47.79 46.79 45.19 40.74 47.42 39.25 46.53 49.51 50.19 51.21 51.56 52.28 52.90 54.63 56.55 57.35 60.41 60.85 61.39 61.34 62.39 64.02 64.37 64.55 65.56 66.39 62.81 62.68 60.48 59.28 60.77 60.99 60.69 62.74 65.93 68.03 70.36 72.03 73.14 73.55 73.62 71.58 72.10 72.92 71.21 69.64 67.70
47.06 48.90 47.18 46.65 44.82 44.71 44.82 42.10 45.71 50.00 47.28 49.35 51.39 52.30 53.44 54.09 55.48 57.12 57.71 59.13 60.15 61.46 60.90 63.65 64.61 65.59 66.41 66.61 65.91 61.47 60.16 59.76 60.81 60.91 61.63 61.81 62.90 64.63 68.28 66.42 62.60 60.35 72.14 71.81 71.48 72.22 71.79 70.89 69.05
49.91 48.19 47.72 47.30 45.64 40.49 44.23 43.33 43.26 45.95 47.70 49.35 51.45 52.26 52.49 53.25 55.13 57.09 59.11 59.97 60.11 59.30 60.06 58.93 60.37 63.89 66.09 65.73 65.21 63.70 61.63 60.61 59.76 59.94 59.98 61.21 62.17 64.02 68.55 64.41 59.49 61.28 63.66 69.37 70.73 72.44 71.10 70.99 71.00
48.96 45.49 39.22 36.81 37.86 37.15 44.87 42.31 44.26 48.61 49.77 50.72 50.73 51.51 52.94 53.93 54.03 56.04 56.37 56.96 60.20 58.99 59.50 59.78 57.98 63.34 64.71 63.92 63.62 62.48 62.26 61.23 59.31 59.64 59.79 59.33 59.98 61.33 64.50 63.87 58.79 56.78 62.46 70.00 70.97 71.70 71.66 71.40 70.39
45.79 44.73 39.31 32.15 33.98 37.47 43.88 38.32 42.41 50.09 51.17 52.40 53.03 54.12 54.33 54.66 55.08 53.50 53.26 55.38 54.00 56.64 59.69 60.10 61.37 61.90 62.89 62.13 62.87 62.73 61.44 59.08 58.93 59.29 60.86 59.94 59.69 60.49 62.28 63.71 67.65 65.04 66.11 68.85 70.73 71.16 70.20 71.43 71.23
44.95 42.21 46.76 41.42 41.75 37.43 40.59 44.08 48.13 50.18 49.59 50.49 50.66 51.74 52.68 54.20 53.91 53.43 52.82 53.56 52.12 52.77 57.97 59.92 60.60 61.38 61.59 60.91 61.37 60.93 60.17 60.61 59.99 60.19 59.81 60.01 60.66 61.15 62.36 63.71 63.86 68.70 68.14 67.54 68.72 70.57 69.89 71.28 70.69
47.49 48.96 41.66 42.82 32.78 31.07 37.71 39.79 40.92 46.15 47.03 48.50 48.02 49.62 51.54 53.74 53.15 53.84 53.36 53.17 53.09 52.64 56.33 58.15 59.73 59.33 59.96 59.56 59.65 58.81 59.06 59.20 59.04 59.19 58.83 59.40 60.14 60.88 61.01 61.75 63.17 67.23 67.70 61.96 60.27 67.68 69.31 69.71 70.69
44.74 43.60 45.09 44.80 41.39 33.90 32.44 36.63 47.29 47.43 48.45 48.71 49.09 50.33 51.19 52.28 52.05 52.21 53.05 54.45 54.53 53.36 55.49 57.43 57.79 57.15 57.17 57.70 58.25 58.28 58.44 58.46 58.10 57.28 57.71 58.09 59.30 60.00 60.09 61.18 62.49 65.82 67.60 64.67 63.98 67.28 69.62 67.99 68.84
47.39 44.97 44.94 38.73 35.60 39.98 37.70 37.09 48.82 49.21 49.23 49.39 49.39 50.11 50.45 51.36 52.63 53.36 53.32 54.14 53.79 53.42 55.65 55.28 56.74 55.49 55.62 56.58 56.66 57.21 57.07 56.96 56.28 56.44 57.39 58.90 58.94 59.69 59.72 60.77 62.25 63.95 67.09 68.06 67.06 67.22 68.24 67.01 67.40
MSLP
1008.22 1007.20 1006.58 1005.72 1004.53 1002.20 999.89 998.31 997.73 997.56 998.06 999.08 1000.71 1002.75 1005.17 1007.22 1010.68 1011.69 1007.05 1003.55 1005.20 1006.86 1007.99 1007.79 1008.19 1008.77 1009.33 1009.74 1010.29 1010.85 1011.32 1011.78 1012.26 1012.51 1012.90 1013.26 1013.55 1013.83 1014.06 1014.09 1014.30 1014.48 1014.65 1014.86 1015.05 1015.15 1015.26 1015.44 1015.51
1007.84 1006.38 1005.38 1004.32 1003.56 1001.76 1001.02 999.01 998.62 998.74 999.23 999.50 1000.86 1003.88 1005.25 1007.53 1008.70 1007.34 1005.61 1004.76 1005.60 1007.11 1007.67 1008.00 1008.67 1009.16 1009.65 1010.07 1010.45 1010.95 1011.44 1011.93 1012.37 1012.69 1012.95 1013.33 1013.73 1013.96 1014.25 1014.43 1014.48 1014.69 1014.84 1014.98 1015.14 1015.30 1015.39 1015.59 1015.75
1007.94 1006.57 1005.33 1003.66 1003.45 1002.28 1001.34 1000.38 999.91 999.36 999.56 999.61 1000.58 1002.34 1004.65 1005.96 1006.14 1005.40 1004.74 1005.32 1006.08 1007.32 1007.80 1008.53 1009.07 1009.64 1010.06 1010.33 1010.69 1011.17 1011.64 1012.00 1012.36 1012.77 1013.11 1013.52 1013.81 1014.02 1014.24 1014.51 1014.65 1014.82 1014.96 1015.10 1015.17 1015.33 1015.47 1015.64 1015.79
1006.63 1005.12 1004.88 1004.20 1003.73 1003.03 1002.11 1001.82 1000.97 999.79 999.65 999.92 1000.92 1002.41 1004.07 1004.10 1004.24 1004.22 1004.53 1004.90 1006.02 1006.74 1007.84 1008.72 1009.49 1010.02 1010.34 1010.67 1011.00 1011.34 1011.74 1012.13 1012.45 1012.75 1013.09 1013.43 1013.85 1014.17 1014.33 1014.46 1014.66 1014.86 1015.02 1015.18 1015.30 1015.40 1015.53 1015.67 1015.77
1006.18 1004.89 1003.95 1004.28 1004.25 1003.07 1002.82 1002.78 1001.77 1000.48 1000.35 1000.02 1001.07 1002.91 1003.81 1004.03 1003.85 1004.24 1004.16 1004.25 1005.61 1006.84 1007.71 1008.69 1009.83 1010.28 1010.53 1010.80 1011.11 1011.58 1011.88 1012.10 1012.40 1012.76 1013.14 1013.47 1013.75 1014.00 1014.24 1014.46 1014.67 1014.80 1015.00 1015.19 1015.33 1015.43 1015.60 1015.61 1015.82
1005.79 1004.35 1003.67 1003.17 1003.06 1003.21 1003.43 1003.42 1002.70 1001.48 1001.08 1000.98 1001.34 1002.66 1003.80 1004.16 1004.40 1004.47 1005.03 1005.34 1005.19 1006.56 1007.79 1008.79 1009.92 1010.27 1010.58 1010.93 1011.25 1011.61 1011.97 1012.24 1012.50 1012.83 1013.11 1013.39 1013.72 1013.97 1014.24 1014.48 1014.62 1014.81 1014.94 1015.06 1015.30 1015.43 1015.61 1015.66 1015.74
1005.15 1004.46 1003.26 1002.87 1002.79 1003.37 1003.76 1003.71 1003.81 1003.14 1002.35 1002.50 1002.66 1002.59 1003.94 1004.57 1004.63 1004.42 1004.76 1004.94 1005.21 1006.34 1007.58 1008.43 1009.26 1009.97 1010.39 1010.85 1011.20 1011.60 1011.98 1012.29 1012.58 1012.94 1013.20 1013.46 1013.70 1013.92 1014.13 1014.32 1014.53 1014.73 1014.94 1015.07 1015.21 1015.43 1015.53 1015.68 1015.64
1004.52 1004.16 1003.11 1002.80 1002.62 1002.79 1003.94 1004.48 1004.56 1004.35 1004.22 1003.80 1003.76 1004.05 1004.68 1005.27 1004.82 1004.02 1003.82 1004.14 1004.47 1005.60 1006.43 1007.56 1008.69 1009.28 1009.81 1010.19 1010.63 1011.16 1011.75 1012.22 1012.55 1012.91 1013.22 1013.44 1013.71 1013.90 1014.02 1014.16 1014.33 1014.48 1014.66 1014.91 1015.10 1015.23 1015.44 1015.54 1015.66
1004.79 1004.20 1002.98 1002.88 1002.85 1003.27 1004.02 1004.30 1004.92 1005.21 1004.80 1005.02 1005.01 1005.20 1005.51 1005.70 1005.46 1005.02 1004.76 1004.55 1004.98 1005.64 1005.92 1006.61 1007.56 1008.33 1008.62 1009.78 1010.72 1011.20 1011.44 1011.89 1012.38 1012.65 1012.88 1013.18 1013.30 1013.51 1013.71 1013.88 1013.88 1014.14 1014.39 1014.58 1014.79 1014.99 1015.19 1015.40 1015.47
1004.14 1003.75 1003.41 1003.26 1003.58 1004.11 1004.32 1004.70 1004.61 1005.21 1004.80 1005.03 1005.39 1005.63 1005.78 1005.94 1005.81 1006.07 1005.86 1005.40 1005.55 1006.16 1006.66 1007.63 1008.00 1008.66 1007.87 1008.97 1010.03 1010.49 1010.72 1011.01 1011.50 1011.93 1012.41 1012.88 1012.74 1012.64 1012.68 1013.02 1013.54 1013.89 1014.06 1014.27 1014.45 1014.67 1014.85 1015.10 1015.01
1003.50 1003.73 1003.71 1004.14 1004.61 1004.79 1004.86 1004.92 1004.86 1005.25 1004.80 1004.56 1004.95 1005.53 1005.86 1006.08 1006.48 1006.55 1006.61 1006.56 1006.82 1007.20 1007.54 1008.30 1008.76 1009.05 1009.07 1009.16 1009.68 1009.33 1009.50 1010.16 1010.61 1010.86 1011.22 1011.81 1012.14 1012.20 1012.06 1012.15 1012.81 1013.49 1013.88 1014.09 1014.27 1014.41 1014.52 1014.41 1014.22
1003.72 1004.30 1004.40 1004.32 1005.06 1005.54 1005.60 1005.37 1005.06 1005.22 1004.87 1005.36 1005.70 1006.20 1006.29 1006.19 1006.47 1007.15 1007.64 1007.63 1007.86 1008.40 1008.82 1008.93 1009.55 1009.74 1009.92 1009.81 1009.49 1009.02 1009.06 1009.56 1009.76 1010.03 1010.59 1011.02 1011.40 1011.76 1011.68 1011.58 1012.14 1012.73 1012.89 1013.39 1013.55 1013.75 1013.74 1013.72 1013.49
1003.99 1004.51 1005.10 1005.22 1005.65 1005.90 1005.83 1005.59 1005.47 1005.17 1005.28 1005.62 1006.22 1006.46 1006.73 1006.50 1006.66 1007.19 1007.71 1008.08 1008.64 1009.33 1009.91 1010.26 1010.67 1010.69 1010.69 1010.58 1010.26 1009.96 1009.61 1009.13 1008.95 1009.39 1009.79 1010.18 1010.56 1010.94 1011.31 1011.30 1011.27 1011.65 1011.90 1012.30 1012.68 1012.84 1013.01 1013.08 1012.92
1004.78 1004.91 1004.84 1005.30 1005.26 1005.87 1006.05 1005.76 1005.37 1005.54 1005.47 1005.52 1006.33 1006.59 1006.67 1006.46 1006.61 1007.08 1007.62 1008.35 1009.20 1010.04 1010.77 1011.34 1011.62 1011.35 1011.14 1011.08 1010.86 1010.63 1010.24 1009.31 1009.25 1009.06 1009.02 1009.54 1009.89 1010.56 1010.63 1011.22 1011.39 1011.41 1011.35 1011.22 1011.49 1011.93 1012.06 1012.29 1012.30
1005.12 1005.11 1004.71 1004.86 1005.13 1005.64 1005.67 1005.95 1005.33 1004.85 1005.04 1005.30 1006.06 1006.53 1006.44 1006.52 1006.70 1006.96 1007.67 1008.69 1009.62 1010.66 1011.59 1012.02 1011.91 1011.80 1011.69 1011.54 1011.32 1010.92 1010.39 1009.68 1009.47 1009.09 1008.65 1008.89 1009.38 1009.77 1010.60 1010.67 1010.99 1011.01 1010.88 1010.82 1010.97 1010.82 1011.16 1011.35 1011.64
1004.60 1004.43 1003.26 1003.84 1004.55 1005.07 1006.17 1005.60 1004.76 1004.12 1004.62 1005.32 1005.86 1006.11 1006.22 1006.26 1006.46 1006.83 1007.73 1009.05 1010.21 1011.25 1012.01 1012.50 1012.47 1012.39 1012.17 1011.80 1011.36 1011.03 1010.56 1010.21 1009.85 1008.98 1008.64 1008.27 1008.74 1009.05 1009.81 1009.98 1010.24 1010.36 1010.58 1010.64 1010.76 1010.73 1010.74 1010.74 1011.15
1004.07 1003.57 1003.46 1003.42 1003.59 1004.49 1005.25 1005.03 1004.85 1004.75 1004.61 1004.65 1004.97 1005.41 1005.74 1005.92 1006.09 1006.48 1007.70 1009.04 1010.26 1011.44 1012.36 1012.69 1012.71 1012.75 1012.42 1011.82 1011.39 1010.87 1010.48 1010.24 1009.68 1009.03 1008.39 1007.90 1007.91 1008.24 1008.83 1009.17 1009.53 1009.68 1010.34 1010.47 1010.49 1010.57 1010.64 1010.82 1010.90
1004.72 1004.87 1004.51 1004.26 1004.13 1004.09 1004.25 1004.26 1004.43 1004.50 1004.41 1004.22 1004.31 1004.53 1004.75 1004.92 1005.46 1006.81 1008.03 1009.17 1010.26 1011.38 1012.32 1012.80 1012.75 1012.78 1012.40 1012.02 1011.55 1011.02 1010.53 1010.02 1009.47 1009.01 1008.35 1007.82 1007.61 1007.35 1007.96 1008.23 1008.25 1008.76 1009.64 1010.02 1010.01 1010.45 1010.85 1010.54 1010.65
1006.01 1005.75 1005.26 1004.83 1004.54 1004.40 1004.36 1004.34 1004.44 1004.31 1004.09 1003.80 1003.77 1003.92 1004.12 1004.58 1005.52 1007.01 1008.27 1009.29 1010.30 1011.29 1012.18 1012.72 1012.79 1012.75 1012.43 1012.12 1011.91 1011.60 1011.27 1010.73 1009.90 1009.20 1008.23 1007.53 1007.17 1007.16 1007.34 1007.37 1007.75 1007.42 1008.78 1009.45 1009.47 1010.03 1010.49 1010.75 1010.22
1006.31 1006.11 1005.60 1004.99 1004.87 1004.86 1004.73 1004.55 1004.54 1004.06 1003.34 1002.76 1002.96 1003.55 1004.15 1004.85 1005.70 1006.93 1008.28 1009.35 1010.21 1010.96 1011.62 1012.22 1012.76 1012.87 1012.72 1012.43 1012.31 1011.80 1011.57 1010.78 1010.02 1009.10 1008.67 1007.87 1006.94 1006.71 1007.07 1007.99 1008.56 1008.24 1008.47 1009.59 1009.29 1009.57 1010.07 1010.28 1010.02
1006.28 1006.06 1005.75 1005.93 1006.15 1006.00 1005.54 1004.30 1003.60 1002.82 1002.39 1002.33 1002.95 1003.83 1004.63 1005.20 1005.66 1006.50 1007.69 1008.85 1009.63 1010.25 1010.84 1011.36 1011.80 1012.39 1012.62 1012.56 1012.33 1011.96 1011.64 1010.72 1010.03 1009.56 1008.89 1008.39 1007.91 1006.94 1006.29 1006.60 1007.49 1009.42 1008.44 1008.79 1009.05 1008.75 1009.29 1009.80 1009.88
1006.35 1006.52 1006.86 1006.99 1007.04 1006.35 1006.43 1004.45 1004.07 1002.81 1001.88 1001.95 1002.61 1003.34 1004.08 1004.66 1005.53 1006.50 1007.43 1008.09 1008.85 1009.49 1010.08 1010.60 1011.17 1011.51 1011.71 1012.27 1012.58 1012.44 1012.07 1011.44 1010.98 1010.32 1009.50 1008.79 1008.07 1007.90 1007.40 1006.93 1006.99 1008.06 1008.48 1008.84 1008.69 1008.44 1008.73 1009.46 1009.82
1007.83 1008.01 1008.11 1008.09 1007.58 1006.95 1006.24 1005.29 1003.12 1002.29 1001.99 1002.37 1002.25 1002.84 1003.62 1004.47 1005.32 1006.07 1006.84 1007.49 1008.15 1008.89 1009.52 1009.92 1010.69 1011.24 1011.49 1011.58 1012.18 1012.40 1012.17 1011.91 1011.36 1010.84 1010.14 1009.23 1008.27 1007.62 1007.27 1007.18 1007.48 1008.04 1007.92 1007.58 1007.83 1008.10 1008.29 1008.80 1009.44
1008.39 1008.61 1008.21 1007.92 1007.42 1006.39 1005.44 1004.62 1003.45 1002.65 1002.52 1002.43 1002.67 1003.12 1003.84 1004.56 1005.24 1005.77 1006.26 1007.42 1007.79 1008.32 1009.53 1009.50 1010.35 1011.19 1011.29 1011.17 1011.64 1012.07 1012.08 1011.87 1011.49 1011.01 1010.46 1009.50 1008.26 1007.40 1006.67 1006.63 1007.07 1007.36 1008.61 1008.00 1006.96 1007.22 1007.70 1008.08 1008.58
1008.17 1008.84 1008.89 1008.53 1008.18 1007.26 1006.09 1005.09 1004.06 1003.61 1003.29 1003.23 1003.56 1004.24 1004.84 1005.38 1005.54 1006.42 1007.24 1007.63 1008.18 1008.91 1008.72 1009.41 1010.63 1010.42 1010.63 1010.60 1010.97 1011.56 1011.73 1011.76 1011.49 1010.90 1010.11 1009.46 1008.50 1007.59 1006.84 1007.58 1008.22 1008.46 1009.01 1008.11 1007.14 1006.30 1006.53 1007.00 1007.79
1009.45 1009.77 1009.96 1009.34 1009.30 1008.29 1008.08 1006.55 1005.16 1004.65 1004.88 1005.13 1005.96 1006.59 1006.70 1007.39 1008.14 1009.12 1010.23 1010.22 1010.93 1012.55 1008.55 1009.21 1009.70 1009.68 1010.00 1010.14 1010.49 1011.00 1011.22 1011.18 1010.94 1010.56 1010.04 1009.64 1008.99 1008.27 1007.35 1006.71 1007.42 1007.30 1007.97 1007.44 1007.01 1006.39 1005.87 1005.77 1007.19
1009.85 1009.95 1009.98 1010.44 1010.72 1009.96 1008.55 1006.95 1005.40 1005.22 1006.80 1007.51 1008.48 1009.20 1009.11 1009.35 1010.06 1010.45 1011.17 1011.47 1010.74 1013.28 1010.31 1009.36 1009.10 1009.21 1009.81 1010.18 1010.26 1010.39 1010.70 1010.61 1010.50 1010.30 1010.06 1009.36 1008.65 1008.06 1007.21 1006.31 1006.44 1006.42 1006.45 1006.83 1006.27 1005.95 1005.71 1005.41 1006.35
1009.79 1009.79 1010.26 1011.02 1011.24 1010.27 1008.79 1007.86 1006.66 1006.31 1007.19 1008.28 1010.15 1010.16 1010.08 1010.57 1010.99 1011.04 1011.76 1011.89 1011.64 1011.77 1010.38 1009.60 1009.10 1009.30 1009.64 1009.93 1009.85 1009.84 1010.19 1010.23 1010.12 1009.95 1009.65 1009.08 1008.42 1007.91 1007.29 1006.35 1005.85 1005.70 1005.69 1005.77 1006.74 1006.17 1005.25 1005.30 1005.24
1009.59 1009.55 1009.96 1010.44 1011.09 1010.99 1010.19 1008.29 1008.20 1007.58 1007.82 1008.36 1009.24 1009.97 1010.69 1011.00 1011.25 1011.15 1011.31 1011.53 1011.15 1010.67 1010.84 1009.48 1009.37 1009.30 1009.37 1009.59 1009.43 1009.48 1009.69 1009.73 1009.73 1009.67 1009.28 1008.78 1008.15 1007.45 1006.97 1006.26 1005.51 1005.11 1004.76 1005.05 1005.22 1005.49 1004.76 1004.62 1005.01
1010.05 1010.04 1010.62 1011.78 1012.76 1012.23 1011.85 1009.05 1009.94 1009.12 1009.02 1009.26 1009.83 1010.40 1011.61 1012.32 1011.92 1011.36 1010.87 1010.19 1010.72 1010.38 1009.19 1008.80 1009.17 1009.28 1009.24 1009.15 1009.03 1009.22 1009.45 1009.49 1009.53 1009.42 1008.97 1008.41 1007.73 1007.10 1006.42 1005.95 1005.15 1004.62 1003.94 1003.62 1003.77 1003.93 1003.80 1004.24 1004.65
Wind_Speed
14 15 11 9 6 8 15 3 7 10 7 13 20 17 20 19 9 4 18 8 24 18 12 13 14 14 13 14 14 14 13 12 11 12 10 9 9 9 8 9 8 8 8 8 8 8 8 8 7
11 18 8 6 6 9 12 10 15 13 11 9 24 26 11 20 15 8 7 11 21 17 12 12 13 13 13 12 13 14 13 12 11 11 11 10 8 9 8 7 8 7 8 8 8 7 7 6 5
10 17 5 5 12 5 8 16 14 6 7 9 11 24 16 11 13 9 8 18 18 14 16 13 13 12 12 12 12 13 12 12 12 11 11 9 9 9 8 7 7 8 8 8 8 7 6 6 4
8 5 4 4 16 4 12 14 15 10 2 6 19 12 20 16 11 9 17 17 18 21 18 15 13 12 12 12 12 12 12 12 12 12 11 11 10 8 7 8 8 7 8 7 7 7 6 5 4
8 5 8 5 18 8 5 13 19 13 6 7 19 16 18 14 13 11 7 13 24 20 17 15 12 11 11 12 12 10 11 12 12 12 11 10 10 10 9 8 8 8 7 7 7 6 6 6 4
4 9 11 11 26 8 7 8 18 14 8 16 14 16 12 13 12 11 11 14 22 20 17 14 12 11 11 11 11 10 9 9 10 11 11 11 10 10 10 8 8 8 8 8 8 7 6 6 5
9 11 13 12 0 9 3 8 12 16 11 15 20 7 11 12 9 5 10 8 14 19 17 14 13 12 13 11 11 10 9 9 9 9 9 9 10 10 10 10 9 8 8 8 8 7 7 7 6
9 11 16 12 9 10 8 5 6 8 10 12 12 15 13 8 11 10 7 10 13 18 20 17 14 14 12 13 15 15 12 10 9 9 9 9 9 10 10 10 10 10 10 9 8 8 8 7 7
6 12 8 10 7 8 11 5 8 2 8 3 10 10 10 4 7 13 12 4 10 4 5 14 17 14 14 13 11 11 13 11 9 9 10 9 7 10 11 11 12 13 11 10 10 9 8 8 9
8 9 8 10 11 9 7 3 2 1 8 8 8 5 6 5 7 5 4 8 11 13 10 12 8 1 2 13 12 10 11 9 9 9 9 7 8 8 13 15 15 14 13 12 11 10 10 8 6
10 6 7 6 10 8 10 6 10 4 12 9 8 9 4 4 5 9 13 10 11 11 11 11 9 9 12 9 7 7 7 7 8 12 11 10 7 7 7 5 8 7 10 6 8 7 6 9 8
6 2 7 5 7 4 8 10 5 9 6 8 8 4 7 2 3 9 5 9 9 12 12 11 13 10 8 7 7 6 3 7 7 10 11 6 6 4 6 5 9 9 8 9 8 7 9 11 10
10 4 2 0 4 8 8 7 9 8 11 9 3 3 8 10 4 2 7 2 9 8 11 11 11 8 7 6 6 7 8 4 5 7 12 10 7 6 5 4 4 9 9 10 9 9 9 11 11
8 6 4 5 7 3 5 10 9 11 12 8 5 8 10 11 8 3 0 6 8 9 8 10 9 7 7 6 7 7 8 4 7 5 7 12 8 5 6 3 4 5 3 7 11 11 10 9 11
9 9 13 11 8 2 1 10 17 17 12 7 5 10 13 11 12 7 2 8 8 7 9 8 7 10 9 8 7 6 7 9 6 8 6 12 10 8 6 6 5 5 5 6 5 6 8 5 5
13 14 11 13 12 7 4 12 12 4 9 9 13 12 13 12 14 10 10 7 9 9 7 7 8 9 9 7 6 5 7 8 9 7 9 8 13 10 9 7 5 7 5 6 5 4 4 5 5
11 8 8 5 6 5 11 14 12 12 13 12 12 13 13 14 13 6 10 6 10 9 5 4 5 7 9 7 7 6 7 7 9 9 8 7 13 14 8 8 8 4 4 5 5 4 4 4 5
17 15 14 13 13 7 13 15 13 14 15 14 13 15 13 15 7 14 10 9 9 7 4 4 4 6 7 5 6 7 8 5 6 9 9 10 6 13 12 11 11 8 5 7 5 2 5 4 4
13 14 15 16 14 15 15 16 16 15 17 17 16 13 11 4 8 12 8 7 7 7 2 4 5 6 6 5 7 7 7 9 10 9 11 10 10 1 11 11 11 11 7 10 7 4 5 10 5
14 15 17 15 16 15 16 20 21 21 21 20 15 8 5 7 7 11 10 7 5 7 6 1 4 6 7 5 6 4 6 8 9 8 10 13 8 8 7 15 10 7 7 10 10 8 4 4 4
14 16 16 16 18 17 20 23 20 18 17 8 5 3 6 6 5 10 12 10 9 7 8 7 5 1 4 6 6 6 7 6 7 10 10 10 16 12 13 9 9 14 11 7 10 8 8 6 2
14 16 18 17 17 16 17 18 20 20 19 11 12 13 12 14 12 6 12 11 11 9 7 7 7 5 1 4 6 8 8 9 7 8 10 12 13 14 13 14 9 13 8 9 8 8 8 6 7
14 16 15 18 19 21 19 14 17 19 3 11 10 6 4 1 3 11 14 11 8 10 10 6 5 3 2 2 3 5 8 8 9 9 12 14 14 12 14 6 2 11 10 10 10 8 10 7 7
8 15 18 19 17 16 20 15 15 10 14 17 11 7 3 5 10 11 7 1 4 7 4 10 9 4 3 2 3 6 7 9 9 10 11 11 10 11 11 4 6 5 14 16 12 12 11 10 8
11 14 10 7 9 14 20 19 14 20 20 15 13 13 12 14 9 10 8 9 4 1 7 8 10 2 2 3 3 6 7 9 11 12 9 12 11 10 13 3 3 4 16 22 15 12 11 11 9
14 13 9 16 14 17 19 14 15 13 19 17 22 25 20 21 19 16 19 19 19 25 4 3 4 4 4 5 4 5 8 8 8 10 9 10 11 13 16 17 7 16 14 22 17 10 9 9 9
11 12 14 10 13 16 14 20 19 10 16 20 23 23 22 19 16 17 17 15 16 24 22 8 6 5 4 5 4 5 7 9 8 10 11 11 12 12 15 16 16 11 13 14 14 10 11 11 11
19 14 10 6 7 16 16 21 16 12 15 4 5 13 2 8 17 15 11 7 3 14 17 11 7 5 4 6 6 6 8 9 9 10 13 13 13 14 16 18 17 15 5 7 14 18 14 13 9
16 13 12 14 11 11 13 13 16 23 24 18 16 18 16 14 9 7 8 8 6 8 22 10 10 10 8 8 8 8 8 8 10 12 13 14 15 14 16 17 17 16 11 12 11 21 17 15 13
14 12 12 5 12 14 15 20 19 19 22 16 18 13 9 10 11 11 14 13 13 17 7 4 6 10 11 9 9 8 9 10 11 13 15 14 14 14 16 16 16 16 14 12 14 17 15 14 15
Wind_Direction
286 260 241 259 257 230 267 9 3 3 42 356 101 112 147 126 138 230 251 76 107 108 124 108 104 106 114 125 128 127 130 132 134 133 133 132 131 129 120 114 114 116 118 117 115 113 108 104 100
298 297 261 265 261 330 333 29 24 21 360 312 102 95 84 140 170 246 234 85 102 118 118 107 96 102 109 121 126 129 132 137 138 138 142 143 140 139 134 124 127 131 132 131 129 125 120 118 116
270 261 275 292 252 49 320 12 348 26 327 331 60 60 79 106 122 140 111 90 106 124 99 103 93 94 102 114 123 129 135 142 146 147 148 150 150 147 143 134 135 147 149 151 148 143 137 136 142
262 215 245 270 294 89 16 357 327 320 222 10 65 62 66 71 104 78 127 136 145 116 109 103 103 104 109 114 123 132 140 147 152 155 156 157 160 157 153 145 147 160 163 170 168 156 158 156 163
268 271 246 224 275 162 27 350 321 322 337 359 77 82 73 86 102 120 89 139 101 106 112 108 109 114 115 121 128 135 142 149 156 160 161 165 166 163 165 166 166 170 179 182 184 174 176 171 192
247 241 272 234 231 112 67 354 325 343 11 25 78 84 60 62 55 66 32 57 104 108 113 125 126 128 128 128 132 137 142 148 157 166 167 168 173 170 175 178 182 184 185 187 191 190 192 193 207
250 273 263 265 292 151 99 3 338 336 20 12 336 100 98 43 17 75 114 98 95 126 133 140 147 148 145 144 145 146 152 156 161 169 172 174 178 180 182 184 187 192 192 194 191 195 204 212 216
273 271 269 269 257 96 106 197 345 357 357 339 358 15 62 40 342 332 108 141 131 153 140 146 151 164 166 167 163 158 159 166 168 173 179 178 184 190 194 189 196 194 193 195 194 197 206 213 224
256 270 262 255 75 98 132 211 153 296 275 30 1 34 58 71 24 7 354 343 108 116 97 135 164 163 184 151 161 161 163 166 178 188 189 182 206 195 208 210 207 194 195 196 195 201 205 217 231
225 251 342 37 48 22 55 315 140 267 230 166 149 95 100 49 27 105 335 353 32 36 43 60 58 328 38 150 156 177 174 178 181 190 189 210 218 226 201 198 204 196 197 197 199 203 205 216 239
257 4 54 83 37 9 337 326 264 252 275 230 142 108 84 72 101 359 12 29 17 33 26 34 56 34 7 8 182 193 175 178 189 192 187 192 217 226 235 201 183 187 196 209 205 208 220 223 225
282 20 353 76 90 298 263 265 305 270 269 57 53 33 322 261 72 112 9 342 24 23 27 359 25 19 14 353 326 345 294 181 191 192 183 193 185 250 230 201 178 190 194 206 217 215 214 221 234
279 115 195 157 233 224 292 280 258 304 265 119 278 198 261 264 256 173 146 195 59 27 21 0 3 2 352 337 335 336 318 313 304 178 183 188 195 180 260 238 217 187 201 189 205 219 218 222 228
11 292 245 195 212 276 233 265 245 227 262 160 228 267 264 274 269 266 236 69 57 49 25 20 346 326 355 339 333 321 307 288 299 281 182 187 187 204 178 238 262 287 245 215 195 210 220 204 218
283 257 215 212 202 241 330 265 250 249 238 189 215 274 272 257 262 246 351 66 46 48 45 16 329 16 3 334 323 318 308 307 247 277 272 181 183 168 222 208 229 249 276 279 287 208 204 194 212
234 227 270 164 187 164 164 273 289 3 186 203 233 252 264 271 274 258 99 73 75 55 36 43 18 8 351 315 298 290 290 293 296 270 271 190 184 188 198 206 207 221 231 249 266 266 251 190 187
208 312 324 307 203 161 216 271 272 287 281 251 234 231 247 257 247 170 112 103 87 85 42 39 50 13 336 333 327 292 273 277 279 282 284 264 184 190 196 195 214 202 234 246 237 257 230 234 194
327 330 323 310 310 249 259 283 299 287 288 285 273 259 252 253 257 111 114 96 102 93 68 19 33 15 335 349 330 351 338 302 273 280 273 278 270 197 189 206 198 191 212 240 230 175 281 236 217
310 298 297 297 292 290 290 292 285 285 281 270 271 269 265 295 112 116 117 114 130 115 66 29 10 21 345 6 347 352 348 322 313 301 284 268 262 321 218 218 202 180 196 228 223 181 205 256 222
291 282 280 291 311 316 307 298 294 279 266 260 246 265 318 281 155 136 146 157 169 156 150 126 19 6 339 3 322 326 331 306 305 295 301 298 250 256 212 202 230 193 194 233 221 215 209 245 213
283 290 300 316 316 297 285 278 284 302 297 251 172 242 286 306 254 189 159 175 190 182 164 162 153 31 321 6 334 334 326 316 336 334 322 337 336 294 269 211 181 219 215 221 223 217 209 217 203
300 338 333 315 306 295 320 296 286 275 259 245 199 210 215 222 208 211 175 189 185 191 176 174 165 161 147 14 337 339 312 320 332 315 319 320 315 313 306 298 214 195 205 219 233 218 212 205 228
307 321 310 294 282 280 277 268 283 288 241 263 245 243 257 302 238 201 220 223 196 183 196 156 123 67 70 69 316 316 315 318 310 316 310 314 303 296 293 190 157 15 272 221 223 213 203 199 217
275 283 300 293 280 267 269 267 280 305 315 310 289 241 249 284 243 238 211 314 210 141 44 22 32 324 17 17 320 309 302 309 310 306 298 290 291 298 311 168 137 148 276 261 219 212 206 202 205
319 328 314 300 319 296 318 323 321 323 309 349 13 5 340 317 306 357 328 287 271 357 162 122 224 249 288 316 341 303 304 303 296 290 297 300 297 298 305 121 184 217 259 244 229 202 194 198 201
296 288 275 293 302 305 318 293 293 10 13 8 6 4 15 15 19 29 22 16 22 338 330 40 309 289 322 316 315 313 296 285 285 287 304 309 303 300 299 299 217 187 243 258 222 219 199 187 202
314 299 295 303 288 282 286 288 285 50 49 4 356 340 341 350 2 6 23 27 34 341 309 342 322 332 333 335 312 299 298 288 301 302 291 286 288 291 290 299 304 308 217 249 282 229 204 191 201
258 249 280 276 290 274 285 305 294 326 3 96 329 282 286 332 347 350 343 325 227 256 303 334 330 314 307 294 295 307 300 295 293 300 295 288 286 285 287 289 297 303 185 207 221 259 221 203 195
319 302 262 272 281 286 294 283 326 331 335 337 346 357 350 340 342 334 315 292 265 270 279 310 305 308 323 316 308 297 292 301 305 299 290 288 285 284 285 286 289 291 268 210 226 245 229 214 213
266 301 303 9 298 285 297 280 304 324 328 351 352 15 354 302 302 318 288 274 264 249 311 284 318 323 312 293 306 314 318 318 311 303 295 295 291 288 285 283 285 288 274 256 232 237 234 218 219